Flag for Syria Weather past 2 weeks in Damascus, Syria

Now
66 °F

Scattered clouds.


Feels Like: 66 °F
Forecast: 51 / 68 °F
Wind: 7 mph from North

Location: Damascus Int. Airport

Current Time: Feb 27, 2015 at 2:10:01 PM

Latest Report: Feb 27, 2015 at 1:00 PM


Visibility: N/A

Pressure: 30.09 "Hg

Humidity: 30%

Dew point: 34 °F

Location of DamascusLocation

Historic Weather in Damascus — Graph

°F

Damascus temperature yesterday

Maximum temperature yesterday: 66 °F (at 3:00 PM)
Minimum temperature yesterday: 39 °F (at 6:00 AM)
Average temperature yesterday: 53 °F

Past Weeks' High & Low Weather Summary

 TemperatureHumidityPressure
High66 °F (Feb 26, 3:00 PM)100% (Feb 14, 5:00 AM)30.30 "Hg (Feb 14, 5:00 AM)
Low28 °F (Feb 21, 7:00 AM)30% (Feb 27, 1:00 PM)29.56 "Hg (Feb 20, 5:00 PM)
Average45 °F73%30.00 "Hg
* Reported Feb 12 1:00 PM — Feb 27 1:00 PM, Damascus, Weather by CustomWeather, © 2015

Note: Actual official high and low records may vary slightly from our data, if they occured in-between our weather recording intervals... More about our weather records

Advertising

Damascus weather history for previous 24 hours

 ConditionsComfort  
Time TempWeatherWind HumidityBarometerVisibility
1:00 PM
Fri, Feb 27
66 °FScattered clouds.7 mph30%30.09 "HgN/A
12:00 PM63 °FScattered clouds.5 mph39%30.15 "HgN/A
11:00 AM59 °FScattered clouds.7 mph48%30.18 "HgN/A
10:00 AM57 °FScattered clouds.9 mph48%30.18 "HgN/A
9:00 AM54 °FScattered clouds.10 mph58%30.18 "HgN/A
8:00 AM50 °FScattered clouds.10 mph71%30.18 "HgN/A
7:00 AM46 °FPassing clouds.8 mph76%30.18 "HgN/A
6:00 AM46 °FPassing clouds.7 mph76%30.18 "HgN/A
5:00 AM45 °FClear.9 mph76%30.18 "Hg10 mi
4:00 AM46 °FClear.9 mph76%30.18 "Hg10 mi
3:00 AM48 °FClear.7 mph71%30.18 "Hg10 mi
2:00 AM48 °FClear.9 mph71%30.21 "Hg10 mi
1:00 AM48 °FClear.10 mph71%30.24 "Hg10 mi
12:00 AM50 °FClear.7 mph67%30.24 "Hg10 mi
11:00 PM
Thu, Feb 26
52 °FClear.9 mph62%30.24 "Hg10 mi
10:00 PM50 °FClear.7 mph62%30.24 "Hg10 mi
9:00 PM52 °FClear.8 mph62%30.24 "Hg10 mi
8:00 PM52 °FClear.8 mph62%30.21 "Hg10 mi
7:00 PM54 °FClear.8 mph58%30.18 "Hg10 mi
6:00 PM57 °FClear.No wind51%30.15 "Hg10 mi
5:00 PM63 °FSunny.7 mph45%30.18 "Hg10 mi
4:00 PM64 °FSunny.7 mph37%30.21 "Hg10 mi
3:00 PM66 °FSunny.6 mph35%30.21 "Hg10 mi
2:00 PM64 °FPassing clouds.No wind46%30.21 "HgN/A
Weather by CustomWeather, © 2015

See weather overviewHow to use our weather pages